Estación meteorológica de Mataró (Maresme, Maresme)

Consulta los datos en tiempo real de la estación meteorológica de Mataró





Hora UTC 06:55
Temperatura 27.8 ºC
Suelo 15 cm 32.5 ºC
Humedad 45.9 %
Presión 1021.7 hPa
Pluja 0.0 mm
Velocidad viento 3.9 km/h
Dirección viento SE
Radiación solar 225.5 W/m²

Webcam

Datos diarios 2026-09-03



Hora UTC (invierno +1h; verano +2h)
Temperatura (ºC) Humedad (%) Presión (hPa) Velocidad viento (km/h) Precipitación (mm) Radiación solar (W/m²)
Hora UTC Aire Suelo 15 cm Humedad Presión Vel. Dir. Vel. Max Dir. Intent. máx 5 min. Rad. Sol.
00:05 24.5 22.5 48.3 1021.0 8.4 NNW 8.4 NNW 0.0 0.1
00:10 24.6 22.6 48.8 1021.0 8.7 NNW 12.4 NNW 0.0 0.1
00:15 25.0 22.7 48.7 1021.0 9.8 NNW 13.4 NNW 0.0 0.1
00:20 25.5 23.1 47.0 1021.0 10.0 NNW 13.8 NNW 0.0 0.1
00:25 25.6 23.5 46.6 1021.0 9.7 NW 12.0 NNW 0.0 0.1
00:30 25.6 23.7 46.5 1021.0 10.2 NNW 14.1 NNW 0.0 0.1
00:35 25.6 23.8 46.8 1021.0 10.8 NNW 13.8 NNW 0.0 0.1
00:40 25.8 24.0 46.6 1021.0 11.7 NNW 14.8 NNW 0.0 0.1
00:45 25.8 24.1 45.8 1020.9 9.4 NNW 13.1 NNW 0.0 0.1
00:50 25.5 24.1 45.9 1020.9 8.4 NNW 9.9 NNW 0.0 0.1
00:55 25.2 23.9 47.1 1021.0 8.6 NNW 10.2 NNW 0.0 0.1
01:00 24.9 23.7 49.0 1021.0 7.3 NW 9.5 NW 0.0 0.1
01:05 24.9 23.4 49.6 1020.9 7.4 NW 10.2 NNW 0.0 0.1
01:10 24.8 23.1 49.9 1020.8 6.4 NNW 8.8 NNW 0.0 0.1
01:15 24.5 22.8 50.5 1020.8 6.8 NNW 9.9 NNW 0.0 0.1
01:20 24.4 22.5 50.3 1020.9 7.1 NNW 10.6 NW 0.0 0.1
01:25 24.6 22.4 48.9 1020.9 8.6 NNW 13.1 NNW 0.0 0.1
01:30 24.8 22.5 48.1 1020.8 7.1 NNW 9.2 NNW 0.0 0.1
01:35 24.8 22.5 47.7 1020.7 9.3 NNW 15.2 NNW 0.0 0.1
01:40 25.3 22.8 47.0 1020.7 12.2 NNW 15.5 NNW 0.0 0.1
01:45 25.7 23.4 46.8 1020.8 13.1 NNW 19.1 NNW 0.0 0.1
01:50 26.0 24.0 47.2 1020.8 13.0 NNW 17.3 NW 0.0 0.1
01:55 26.1 24.5 47.1 1020.8 12.0 NNW 16.6 NNW 0.0 0.1
02:00 26.2 24.8 46.7 1020.8 12.6 NNW 18.0 NNW 0.0 0.1
02:05 26.2 25.0 46.2 1020.8 12.4 NNW 18.7 NW 0.0 0.1
02:10 26.3 25.1 46.0 1020.9 10.9 NNW 15.9 NW 0.0 0.1
02:15 26.3 25.1 45.4 1020.9 10.9 NNW 14.5 NNW 0.0 0.1
02:20 26.2 25.0 45.6 1020.9 10.1 NNW 14.1 NNW 0.0 0.1
02:25 26.2 25.0 45.8 1020.8 11.2 NNW 15.5 NNW 0.0 0.1
02:30 26.2 25.0 45.6 1020.8 9.9 NNW 15.9 NNW 0.0 0.1
02:35 26.3 25.0 45.4 1020.8 11.0 NNW 14.5 NNW 0.0 0.1
02:40 26.2 24.9 45.7 1020.8 6.5 NNW 8.1 NNW 0.0 0.1
02:45 25.8 24.7 47.3 1020.8 5.9 NNW 9.5 NNW 0.0 0.1
02:50 25.7 24.5 49.2 1020.7 6.4 N 8.5 N 0.0 0.1
02:55 25.9 24.3 48.9 1020.7 5.6 N 7.1 N 0.0 0.1
03:00 26.1 24.3 48.5 1020.7 5.8 NNE 8.1 N 0.0 0.1
03:05 26.2 24.4 48.2 1020.7 6.7 NNE 9.2 NNE 0.0 0.1
03:10 26.4 24.7 47.8 1020.7 8.3 N 10.6 N 0.0 0.1
03:15 26.5 25.0 47.7 1020.7 8.0 NNE 10.9 N 0.0 0.1
03:20 26.5 25.1 48.0 1020.6 6.3 NNE 8.1 N 0.0 0.1
03:25 26.5 25.2 48.0 1020.6 4.3 NNE 6.4 NNE 0.0 0.1
03:30 26.6 25.2 47.9 1020.6 3.7 NE 5.6 NE 0.0 0.1
03:35 26.6 24.9 48.0 1020.7 3.0 NNE 4.9 NNE 0.0 0.1
03:40 26.2 24.4 49.0 1020.6 3.0 NNE 6.0 NE 0.0 0.1
03:45 26.0 23.9 49.4 1020.6 3.0 NNE 4.6 NNE 0.0 0.1
03:50 26.0 23.5 49.1 1020.5 1.6 NE 3.2 NE 0.0 0.1
03:55 26.0 23.0 49.1 1020.5 1.2 NNE 2.5 NE 0.0 0.1
04:00 25.8 22.8 49.6 1020.5 1.6 N 3.5 NNE 0.0 0.1
04:05 25.6 22.7 50.3 1020.5 0.8 N 3.2 NNW 0.0 0.1
04:10 25.2 22.5 51.4 1020.4 3.5 NNW 4.9 NNW 0.0 0.1
04:15 25.2 22.5 51.4 1020.4 2.4 NNW 3.9 NNW 0.0 0.1
04:20 25.2 22.5 51.1 1020.4 2.2 NNW 3.2 NNW 0.0 0.1
04:25 25.3 22.3 51.0 1020.5 0.6 NNW 1.8 NNW 0.0 0.1
04:30 25.2 22.0 51.1 1020.5 0.7 NNW 2.5 NNW 0.0 0.1
04:35 25.0 21.7 51.6 1020.5 1.7 NNW 2.5 NNW 0.0 0.1
04:40 25.0 21.6 51.6 1020.5 0.6 N 1.8 N 0.0 0.1
04:45 24.9 21.4 51.8 1020.5 0.1 N 1.1 N 0.0 0.1
04:50 25.0 21.1 51.5 1020.6 0.0 NNE 0.0 N 0.0 0.1
04:55 24.9 20.7 51.8 1020.6 0.0 NNE 0.0 N 0.0 0.2
05:00 24.8 20.5 52.1 1020.6 0.0 NNE 0.0 N 0.0 0.4
05:05 24.7 20.4 52.3 1020.6 0.0 NNE 0.0 N 0.0 1.0
05:10 24.7 20.4 52.2 1020.6 0.0 NNE 0.0 ENE 0.0 1.9
05:15 24.6 20.3 52.7 1020.7 0.0 NNE 0.0 ENE 0.0 3.2
05:20 24.5 20.4 52.8 1020.8 0.0 NNE 0.0 ENE 0.0 5.3
05:25 24.6 20.5 52.6 1020.8 0.0 NNE 0.0 ENE 0.0 8.0
05:30 24.5 20.6 52.9 1020.8 0.0 NNE 0.0 ENE 0.0 11.1
05:35 24.4 20.7 52.9 1020.9 0.0 NNE 0.0 ENE 0.0 14.2
05:40 24.5 20.8 52.8 1021.0 0.0 NNE 0.0 ENE 0.0 17.3
05:45 24.7 21.1 52.5 1021.0 0.3 ENE 1.8 ENE 0.0 20.4
05:50 24.7 21.4 52.8 1021.1 0.2 ENE 1.8 ENE 0.0 23.9
05:55 24.7 21.7 53.0 1021.1 0.3 NNW 2.8 NNW 0.0 26.5
06:00 24.6 22.0 53.2 1021.1 2.8 N 3.9 NNW 0.0 47.1
06:05 24.8 22.5 52.4 1021.2 2.0 N 2.5 N 0.0 90.8
06:10 25.1 23.4 51.4 1021.3 2.2 N 3.5 NNW 0.0 103.9
06:15 25.2 24.7 51.3 1021.3 0.0 NNE 0.0 NNE 0.0 117.2
06:20 25.5 25.9 51.0 1021.3 0.0 NNE 0.0 NNE 0.0 130.5
06:25 25.7 27.2 50.6 1021.4 0.0 NNE 0.0 NNE 0.0 143.7
06:30 26.0 28.5 49.5 1021.4 0.2 SE 2.8 ESE 0.0 157.2
06:35 26.5 29.6 48.2 1021.5 1.4 E 3.5 ESE 0.0 170.7
06:40 26.9 30.6 47.0 1021.6 2.6 ENE 5.6 E 0.0 184.3
06:45 27.3 31.4 46.6 1021.7 1.7 E 4.6 SE 0.0 198.1
06:50 27.6 32.0 46.1 1021.7 3.3 ESE 5.6 ESE 0.0 211.9
06:55 27.8 32.5 45.9 1021.7 3.9 SE 6.4 ESE 0.0 225.5
Máxima 27.8 32.5 53.2 1021.7 13.1 NNW 19.1 NNW 0.0 225.5
Mínima 20 20 45.4 1020.4
Total 0.0